Weather in Velikent

Russia / Republic of Dagestan     42°11′13″N   48°04′00″E
temp.,
°C
wind,
m/s
gust,
m/s
humid.,
%
clouds,
%
prec.,
mm/h
press.,
hPa
HPBL,
m
26 february, fri
fri2600:00−2wsw0164100 0.0 103029
03:00−1nnw1156100 0.0 102827
06:000sw225399 0.0 102828
09:00+5s234699 0.0 1026112
12:00+8sse3534100 0.0 1025506
15:00+9ne223992 0.0 1024357
18:00+4ssw125067 0.0 102522
21:00+4sw225182 0.0 102524
27 february, sat
sat2700:00+4sw2251100 0.0 102422
03:00+3wsw125488 0.0 102322
06:00+3wsw225467 0.0 102222
09:00+8ssw135033 0.0 1021251
12:00+11se45500 0.0 1019883
15:00+11ese45540 0.0 1017815
18:00+7se11690 0.0 101722
21:00+5wsw11740 0.0 101722
28 february, sun
sun2800:00+5wsw11740 0.0 101622
03:00+5sw22620 0.0 101522
06:00+5wsw12510 0.0 101522
09:00+10se00420 0.0 101575
12:00+9nne35641 0.0 1014520
15:00+9nne337210 0.0 1013524
18:00+7n238477 0.0 1015262
21:00+6ene128687 0.0 1016234
1 march, mon
mon100:00+5nne2293100 0.3 1017210
03:00+5nne3496100 0.8 1018252
06:00+4n5895100 1.6 1020435
09:00+3n5792100 3.4 1022439
12:00+4n3583100 0.3 1023518
15:00+4n1385100 0.4 1024367
18:00+4ene0185100 0.1 1026311
21:00+4sse1186100 0.1 1028232
2 march, tue
tue200:00+3ne018794 0.0 102897
03:00+3ene119097 0.1 1028133
06:00+3e1294100 0.3 1029226
09:00+3ese1193100 1.1 1030234
12:00+3e1293100 0.4 1029254
15:00+5e237598 0.6 1028622
18:00+4ese2479100 0.1 1028409
21:00+3sse128399 0.1 1028212